[[{"header":{"parameterUnit":"m.s-1","parameterCategory":1,"la1":30.2991,"la2":30.254,"lo1":-89.0895,"lo2":-89.0444,"dy":0.0017,"dx":0.0017,"nx":28,"ny":28,"refTime":"2023-08-03T21:00:00:Z","depth":0,"parameterNumber":2,"parameterNumberName":"U-component_of_WINDS"},"data":[0,0,0,0,0,0,0,0,0,0,0,0,0,0,0,0,0,0,0,0,0,0,0,0,0,0,0,0,0,0,0,0,0,0,0,0,0,0,0,0,0,0,0,0,0,0,0,0,0,0,0,0,0,0,0,0,0,0,1.4062,1.4064,0,1.4206,1.4208,1.4209,1.4222,1.4221,1.4219,1.4218,1.437,1.4375,1.438,0,0,0,0,0,0,0,0,0,0,0,0,0,1.3801,1.3806,1.4062,1.4064,1.4066,1.4206,1.4208,1.421,1.4222,1.4221,1.4219,1.4217,1.4368,1.4374,1.4381,0,0,0,0,0,0,0,0,0,0,0,0,0,1.3927,1.3808,1.4062,1.4089,1.4093,1.4205,1.4208,1.421,1.4223,1.422,1.4218,1.4216,1.4366,1.4374,1.4382,1.4479,0,0,1.4407,1.441,0,0,0,0,0,0,0,0,1.392,1.3937,1.4083,1.4087,1.4092,1.4194,1.4172,1.4301,1.4223,1.4174,1.4218,1.4215,1.4313,1.4326,1.4358,1.4486,1.4493,1.4408,1.4413,1.4416,1.4418,0,0,0,0,0,0,0,1.3911,1.393,1.4119,1.4085,1.409,1.4095,1.411,1.4196,1.4255,1.4178,1.4179,1.4196,1.4315,1.435,1.4362,1.4495,1.4407,1.4415,1.442,1.4423,1.4708,1.4711,0,0,0,0,0,0,1.3897,1.3923,1.4115,1.4123,1.3998,1.4101,1.4118,1.4163,1.4254,1.4265,1.4197,1.4196,1.4337,1.4352,1.4367,1.4485,1.4416,1.4424,1.4429,1.4705,1.4709,1.4711,0,0,0,0,0,0,1.3891,1.3914,1.4109,1.4024,1.4049,1.4108,1.4159,1.4167,1.4202,1.4269,1.428,1.4222,1.4336,1.4355,1.445,1.4491,1.4428,1.4435,1.4702,1.4706,1.471,1.4723,0,0,0,0,0,0,1.3884,1.3912,1.3948,1.4024,1.4053,1.4189,1.4161,1.4172,1.4216,1.4215,1.4294,1.4306,1.4335,1.4438,1.4458,1.4501,1.4441,1.4699,1.4704,1.4709,1.4719,1.4727,1.4733,0,0,0,0,0,1.3874,1.3948,1.395,1.3973,1.41,1.4191,1.4208,1.4239,1.4219,1.4257,1.4299,1.4303,1.4483,1.4447,1.4471,1.4516,1.4697,1.4703,1.4708,1.4716,1.4725,1.4733,0,0,0,0,0,0,1.3877,1.3958,1.3962,1.4062,1.4119,1.4193,1.4242,1.4249,1.4314,1.4311,1.4348,1.4366,1.4459,1.4498,1.4457,1.4614,1.4588,1.4599,1.4585,1.4595,1.4602,1.459,1.4448,0,0,0,0,0,1.3889,1.3955,1.4023,1.4104,1.4133,1.4182,1.4223,1.4242,1.4304,1.4328,1.4378,1.4439,1.4508,1.4554,1.4622,1.4725,1.4742,1.4768,1.4775,1.478,1.4789,1.4844,1.4856,1.4731,1.4731,1.4731,0,0,1.3915,1.3967,1.4007,1.4106,1.4153,1.422,1.4203,1.4276,1.4326,1.434,1.4431,1.447,1.454,1.4639,1.4685,1.4673,1.4827,1.4788,1.4792,1.4798,1.4852,1.4863,1.4874,1.4735,1.4734,1.4734,0,0,1.3996,1.4043,1.4115,1.4162,1.4232,1.4264,1.4281,1.4354,1.4379,1.4471,1.4482,1.4544,1.4664,1.4713,1.4754,1.4852,1.4858,1.4874,1.4911,1.4964,1.4974,1.4983,1.5017,1.5028,1.4882,1.4882,1.4882,0,1.402,1.4121,1.4152,1.4224,1.4267,1.4281,1.4354,1.4398,1.4488,1.4518,1.4503,1.4653,1.4701,1.481,1.4834,1.4867,1.4888,1.4864,1.497,1.4979,1.4988,1.502,1.5033,1.4884,1.4883,1.4883,1.4883,0,1.4146,1.4216,1.4267,1.435,1.4399,1.4472,1.4514,1.456,1.4575,1.4608,1.4702,1.476,1.4839,1.4867,1.4883,1.4978,1.4969,1.4962,1.4936,1.5001,1.5032,1.5045,1.4886,1.4885,1.4885,1.4884,0,0,1.4234,1.4332,1.435,1.4387,1.4465,1.452,1.4593,1.4669,1.4707,1.4769,1.483,1.4931,1.4924,1.497,1.4992,1.5039,1.5111,1.5027,1.5029,1.5039,1.5218,1.5222,1.5236,1.5115,1.5118,1.512,1.5212,0,1.4323,1.4451,1.4481,1.4592,1.4656,1.4669,1.4733,1.4788,1.4821,1.4882,1.4919,1.4989,1.4976,1.5003,1.505,1.5092,1.5147,1.5086,1.5173,1.5176,1.5154,1.5252,1.5257,1.5341,1.5224,1.5226,1.5228,0,1.4444,1.4505,1.4622,1.469,1.4718,1.4774,1.4845,1.4903,1.4965,1.4986,1.5036,1.5053,1.5129,1.51,1.5206,1.5163,1.5201,1.5227,1.5231,1.524,1.5205,1.5262,1.5368,1.538,1.5248,1.5246,1.5245,0,1.4494,1.4606,1.469,1.4722,1.4804,1.4843,1.4879,1.4938,1.4982,1.5044,1.5072,1.5144,1.5183,1.5238,1.5273,1.5249,1.5376,1.535,1.5395,1.5394,1.5421,1.5419,1.5533,1.5447,1.5447,1.5446,1.5446,0,1.459,1.466,1.4713,1.4765,1.4844,1.4877,1.4955,1.4992,1.5045,1.5104,1.5121,1.5176,1.5219,1.5281,1.5309,1.5391,1.541,1.5429,1.5435,1.5426,1.5424,1.5451,1.5445,1.545,1.5449,1.5448,1.5448,0,1.4659,1.4697,1.4789,1.4858,1.4877,1.4932,1.4992,1.5042,1.5075,1.515,1.5169,1.5222,1.5295,1.5335,1.5428,1.5447,1.5538,1.5543,1.5516,1.5519,1.5561,1.5556,1.5696,1.5716,1.5618,1.5619,1.562,0,1.4716,1.4771,1.4845,1.4885,1.4921,1.4985,1.5029,1.5064,1.5108,1.5182,1.5224,1.5298,1.5358,1.5474,1.5521,1.5591,1.5596,1.5641,1.5607,1.5596,1.5595,1.5591,1.5596,1.5646,1.5647,1.5648,1.5648,0,1.4814,1.483,1.4892,1.496,1.5011,1.5066,1.5121,1.5153,1.5198,1.5247,1.5321,1.5367,1.546,1.5533,1.5606,1.5644,1.5654,1.5658,1.5672,1.5664,1.5645,1.5654,1.5531,1.5655,1.5654,1.5654,1.5653,1.5653,1.4879,1.4927,1.4986,1.5053,1.5098,1.5149,1.5199,1.5238,1.5299,1.5376,1.5394,1.5471,1.5531,1.5631,1.5671,1.5732,1.5724,1.5744,1.5749,1.5754,1.5754,1.5636,1.5746,1.5746,1.5746,1.5746,1.5745,0,1.4976,1.5014,1.5076,1.5152,1.5205,1.5208,1.5268,1.5313,1.538,1.5435,1.5493,1.5577,1.5647,1.5699,1.5771,1.581,1.5816,1.5827,1.5824,1.5832,1.5758,1.5738,1.5821,1.5821,1.5821,1.5821,1.5821,1.5821,1.5033,1.5114,1.5137,1.524,1.5278,1.5353,1.5387,1.5434,1.5477,1.557,1.5627,1.566,1.5714,1.5789,1.5853,1.5867,1.5892,1.5902,1.5916,1.5846,1.5838,1.583,1.5811,1.5908,1.5908,1.5985,1.5985,1.5986]},{"header":{"parameterUnit":"m.s-1","parameterCategory":1,"la1":30.2991,"la2":30.254,"lo1":-89.0895,"lo2":-89.0444,"dy":0.0017,"dx":0.0017,"nx":28,"ny":28,"refTime":"2023-08-03T21:00:00:Z","depth":0,"parameterNumber":3,"parameterNumberName":"V-component_of_WINDS"},"data":[0,0,0,0,0,0,0,0,0,0,0,0,0,0,0,0,0,0,0,0,0,0,0,0,0,0,0,0,0,0,0,0,0,0,0,0,0,0,0,0,0,0,0,0,0,0,0,0,0,0,0,0,0,0,0,0,0,0,4.9868,4.9868,0,4.9891,4.9892,4.9892,4.9886,4.9885,4.9885,4.9885,4.9905,4.9906,4.9907,0,0,0,0,0,0,0,0,0,0,0,0,0,4.9811,4.9813,4.9868,4.9868,4.9868,4.9891,4.9892,4.9892,4.9886,4.9885,4.9885,4.9884,4.9905,4.9906,4.9907,0,0,0,0,0,0,0,0,0,0,0,0,0,4.9836,4.9813,4.9868,4.9868,4.9868,4.9891,4.9892,4.9892,4.9886,4.9885,4.9885,4.9884,4.9905,4.9906,4.9908,4.993,0,0,4.9912,4.9913,0,0,0,0,0,0,0,0,4.9834,4.9838,4.9868,4.9868,4.9869,4.9885,4.988,4.9905,4.9886,4.9879,4.9885,4.9884,4.9899,4.9901,4.9907,4.9931,4.9932,4.9912,4.9913,4.9914,4.9914,0,0,0,0,0,0,0,4.9833,4.9836,4.9877,4.9868,4.9869,4.9865,4.9868,4.9884,4.9893,4.988,4.9879,4.9883,4.9899,4.9905,4.9907,4.9933,4.9912,4.9913,4.9914,4.9915,4.9973,4.9973,0,0,0,0,0,0,4.9831,4.9835,4.9876,4.9878,4.9849,4.9867,4.987,4.988,4.9892,4.9894,4.9883,4.9882,4.9903,4.9905,4.9908,4.9933,4.9914,4.9915,4.9916,4.9972,4.9973,4.9974,0,0,0,0,0,0,4.983,4.9835,4.9875,4.9856,4.9861,4.9869,4.988,4.9881,4.9888,4.9895,4.9896,4.9888,4.9903,4.9906,4.9924,4.9933,4.9916,4.9917,4.9971,4.9972,4.9973,4.9984,0,0,0,0,0,0,4.9828,4.9835,4.9845,4.9857,4.9862,4.9893,4.9881,4.9882,4.9891,4.989,4.99,4.9901,4.9902,4.9922,4.9926,4.9935,4.9918,4.997,4.9972,4.9973,4.9983,4.9985,4.9987,0,0,0,0,0,4.9826,4.9847,4.9846,4.9851,4.9876,4.9894,4.9897,4.9899,4.9891,4.99,4.9905,4.9901,4.9932,4.9924,4.9928,4.9938,4.997,4.9971,4.9973,4.9982,4.9985,4.9987,0,0,0,0,0,0,4.9836,4.9849,4.9847,4.9873,4.9882,4.9893,4.9905,4.9902,4.9913,4.9912,4.9912,4.9915,4.9933,4.9937,4.9928,4.9958,4.995,4.9952,4.9955,4.9958,4.996,4.9958,4.9919,0,0,0,0,0,4.9841,4.9856,4.9866,4.9888,4.9892,4.9898,4.9906,4.9906,4.9915,4.9919,4.9925,4.9933,4.9944,4.9951,4.9962,4.9984,4.9984,4.9992,4.9994,4.9996,4.9998,5.0006,5.0009,4.9978,4.9978,4.9978,0,0,4.9852,4.9861,4.987,4.989,4.9897,4.991,4.9901,4.9916,4.9925,4.9921,4.9938,4.9942,4.9951,4.997,4.9979,4.9974,5.0006,4.9998,4.9999,5.0,5.0008,5.001,5.0013,4.9979,4.9979,4.9979,0,0,4.9878,4.9888,4.9905,4.9912,4.9923,4.9926,4.993,4.994,4.9942,4.996,4.9956,4.9966,4.9986,4.9991,4.9997,5.0021,5.0017,5.0024,5.0036,5.0044,5.0046,5.0048,5.0054,5.0057,5.0026,5.0026,5.0026,0,4.989,4.9911,4.9914,4.9928,4.9935,4.9932,4.9947,4.9954,4.9968,4.9972,4.9967,4.999,4.9996,5.0015,5.002,5.0026,5.0028,5.0023,5.0046,5.0048,5.005,5.0055,5.0058,5.0027,5.0027,5.0027,5.0027,0,4.9923,4.9937,4.995,4.9963,4.9971,4.9986,4.9989,4.9997,4.9996,4.9998,5.0014,5.0021,5.0032,5.0036,5.0036,5.0054,5.005,5.0046,5.0036,5.0053,5.0059,5.0061,5.0028,5.0028,5.0028,5.0027,0,0,4.9957,4.9969,4.9973,4.9977,4.9988,4.9998,5.0012,5.0023,5.0028,5.0037,5.0047,5.0062,5.0057,5.0063,5.0063,5.007,5.0085,5.0064,5.0064,5.0066,5.0102,5.0105,5.0108,5.0083,5.0084,5.0084,5.0101,0,4.9981,5.0006,5.0007,5.0029,5.004,5.0036,5.0047,5.0053,5.0056,5.0064,5.0066,5.0076,5.007,5.0073,5.008,5.0082,5.0092,5.0081,5.009,5.009,5.0086,5.0111,5.0114,5.013,5.0103,5.0104,5.0104,0,5.0014,5.0023,5.0046,5.0051,5.0056,5.0067,5.0075,5.0084,5.009,5.0091,5.0096,5.0094,5.0105,5.0096,5.011,5.0102,5.0106,5.0107,5.0108,5.0107,5.0097,5.0109,5.0135,5.0137,5.0108,5.0108,5.0107,0,5.0032,5.0051,5.0066,5.007,5.0078,5.0084,5.0088,5.0093,5.0099,5.0106,5.0109,5.0117,5.0121,5.0126,5.0125,5.0119,5.0138,5.013,5.0137,5.0137,5.0141,5.014,5.0166,5.0146,5.0146,5.0146,5.0146,0,5.0058,5.0072,5.0073,5.0083,5.0096,5.0096,5.011,5.0112,5.0117,5.0125,5.0122,5.0129,5.0128,5.0135,5.0134,5.0144,5.0147,5.0146,5.0145,5.0145,5.0145,5.0147,5.0145,5.0147,5.0146,5.0146,5.0146,0,5.0081,5.0083,5.0099,5.0105,5.0106,5.0116,5.012,5.0127,5.0129,5.0138,5.0141,5.0142,5.015,5.015,5.0158,5.0158,5.0169,5.0168,5.0167,5.0167,5.0173,5.0172,5.0199,5.0202,5.0182,5.0182,5.0182,0,5.0097,5.0107,5.0113,5.0118,5.0122,5.0131,5.0136,5.0136,5.0141,5.0147,5.0153,5.016,5.0166,5.0178,5.0179,5.0184,5.0182,5.0192,5.0183,5.0182,5.018,5.0179,5.0179,5.0193,5.0193,5.0193,5.0193,0,5.0124,5.0123,5.0132,5.0139,5.0145,5.0151,5.0156,5.016,5.016,5.0166,5.0173,5.0178,5.0186,5.0192,5.0198,5.0199,5.0196,5.0196,5.0198,5.0197,5.0195,5.0194,5.017,5.0195,5.0195,5.0195,5.0195,5.0195,5.0142,5.0149,5.0154,5.0162,5.0166,5.017,5.0177,5.0178,5.0185,5.0192,5.0191,5.0199,5.0202,5.0208,5.0211,5.0216,5.0212,5.0215,5.0216,5.0216,5.0216,5.0196,5.0217,5.0217,5.0217,5.0217,5.0217,0,5.0166,5.0168,5.0176,5.0183,5.0188,5.0185,5.019,5.0195,5.0202,5.0205,5.0211,5.0218,5.0224,5.0225,5.023,5.0233,5.0231,5.0234,5.0233,5.0233,5.022,5.0217,5.0236,5.0236,5.0236,5.0236,5.0236,5.0236,5.0179,5.019,5.019,5.0203,5.0205,5.0213,5.0215,5.0219,5.0221,5.023,5.0235,5.0235,5.0237,5.0242,5.0246,5.0246,5.0247,5.0251,5.025,5.0237,5.0235,5.0233,5.023,5.0251,5.0251,5.0263,5.0263,5.0263]}]]